Location: High Meadows Obseravatory
(40.7417°N, 111.5713°W)
Time: 23:34:32
(UTC-07:00)

BlueWalker 3 - Pass Details

Date: 06 December 2022
Orbit: 499 x 517 km, 53.2° (Epoch: 02 February)

Event Time Altitude Azimuth Distance (km) Brightness Sun altitude
Rises 17:21:45 0° 309° (NW) 2,625 6.0 -4.7°
Reaches altitude 10° 17:24:51 10° 335° (NNW) 1,733 4.7 -5.2°
Drops below altitude 10° 17:29:08 10° 42° (NE) 1,724 4.1 -6.0°
Enters shadow 17:30:07 - 53° (NE) 1,960 4.3 -6.1°
Exits shadow 18:03:45 -65° 115° (ESE) 12,111 8.8 -12.0°
